SKYSAT-C11 (42987 NORAD) Tracking and Keplerian Element Data

This shows tracking and keplerian element data for the satellite.

Feedback or suggestion? Click here.




ElementValue
Catalog42987
NameSKYSAT-C11
Epoch Orbit8682
Epoch Day146.20771913
Epoch Year2019
RAAN260.1504
Inclination97.429
Eccentricity0.0007587
Argument of Perigee306.6298
Mean Anonmoly53.424
Mean Motion15.2172159
Decay Rate3.12E-06
L11 42987U 17068A 19146.20771913 .00000312 00000-0 16855-4 0 9998
L22 42987 97.4290 260.1504 0007587 306.6298 53.4240 15.21721590 86827

Live tracking and technical data element details for SKYSAT-C11 (NORAD 42987). SKYSAT-C11 can be tracked NOW for your location showing map with azimuth and elevation plus other details from your city location.

Track the satellite on the map from your city or location and see movement details for azimuth, elevation, latitude, longitude, range, height, and movement on the map or in text.







IsCatalogInMostPopularTable: catalog: 42987, numindb: 223
Update: records affected: 1



GetName: 42987 SKYSAT-C11

Hit Count: updated at: Sun, 26 May 2019 20:00:06 GMT